Главная страница
METAR-TAF:

METAR-TAF

Аэропорты :

Сан-Хуан, Пуэрто-Рико, США

широта: 18-27-24N, долгота: 066-05-54W, высота над уровнем моря: 3 м

Текущие метеонаблюдения

Эта сводка был подготовлена 46 минут назад, в 17:48 UTC
Ветер 10 Узел от восточный
Температура 28°C
Влажность 70%
Давление 1018 hPa
Видимость: 16.1 км
Отдельные облака на высоте 4500 фута

METAR: TJIG 121748Z 08010KT 10SM SCT045 28/22 A3005

Время: 14:34 (18:34 UTC)


TAF: отсутствует

Метеонаблюдения и прогнозы для более 4000 аэропортов (сводки METAR и TAF).

Имеющиеся станции представлены на карте желтыми и красными точками.

Чтобы увидеть название станции, наведите на нее мышь.

Затем щелкните, чтобы увидеть метеонаблюдения и метеопрогнозы.

Управление картой: чтобы увеличить масштаб, щелкните зеленые кнопки с черным крестиком; чтобы уменьшить масштаб, щелкните зеленую кнопку с тире; для просмотра соседних карт щелкайте зеленые стрелки.


METAR-TAF: